CW7056 Olongapo City PH current weather conditions

sailwx.info

Wind from 250

Air temperature 31.7° C
Dewpoint 25.5° C

Last reported at 2014-Aug-28 04:50 UTC.
Time now 2014-Aug-28 05:29 UTC

Location: N 14°51' E 120°16'.
View on Google Maps.

See reports from other nearby stations

  
Tides and Currents Weather Stations Pressure Air Temp Water Temp Dewpoint Dewpoint Depression Visibility Wind Speed Wind Dir Waves Ship Positions
date/time (UTC)wind fromknots sea level pressurealtimeterstation pressurevisibilityair tempwater tempwave heightnotes
2014-Aug-28 04:50 250 31.7
2014-Aug-28 04:40 360 32.2
2014-Aug-28 04:29 360 32.8
2014-Aug-28 04:19 348 0 gusting 0 32.2
2014-Aug-28 03:52 351 0 gusting 0 32.2
2014-Aug-28 03:41 360 31.1
2014-Aug-28 03:31 292 0 gusting 0 32.2
2014-Aug-28 03:21 360 32.2
2014-Aug-28 03:10 256 0 gusting 0 32.2
2014-Aug-28 03:00 343 0 gusting 0 32.8
2014-Aug-28 02:50 360 32.2
2014-Aug-28 02:39 266 32.2
2014-Aug-28 02:29 266 31.7
2014-Aug-28 02:19 266 30.6
2014-Aug-28 02:09 266 31.1
2014-Aug-28 01:59 265 30.6
2014-Aug-28 01:47 266 30.0
2014-Aug-28 01:37 266 30.0
2014-Aug-28 01:26 266 30.6
2014-Aug-28 01:15 265 28.9
2014-Aug-28 01:03 265 28.3
2014-Aug-28 00:53 265 27.8
2014-Aug-28 00:41 265 0 gusting 0 27.2
2014-Aug-28 00:31 360 27.2
2014-Aug-28 00:21 360 26.7
2014-Aug-28 00:11 360 26.1
2014-Aug-28 00:01 360 26.1
2014-Aug-27 23:51 360 26.7
2014-Aug-27 23:41 360 26.7
2014-Aug-27 23:31 360 26.1
2014-Aug-27 23:21 360 26.1
2014-Aug-27 23:11 360 25.0
2014-Aug-27 23:00 360 24.4
2014-Aug-27 22:49 360 24.4
2014-Aug-27 22:39 360 24.4
2014-Aug-27 22:28 360 24.4
2014-Aug-27 22:18 266 23.9
2014-Aug-27 22:08 360 23.9
2014-Aug-27 21:55 360 23.9
2014-Aug-27 21:44 360 23.9
2014-Aug-27 21:34 360 23.9
2014-Aug-27 21:24 360 23.9
2014-Aug-27 21:14 360 23.9
2014-Aug-27 21:04 360 24.4
2014-Aug-27 20:54 360 24.4
2014-Aug-27 20:44 360 23.9
2014-Aug-27 20:33 360 23.9
2014-Aug-27 20:20 360 23.9
2014-Aug-27 20:10 360 24.4
2014-Aug-27 20:00 360 24.4
2014-Aug-27 19:49 360 23.9
2014-Aug-27 19:39 360 24.4
2014-Aug-27 19:28 360 24.4
2014-Aug-27 19:17 360 24.4
2014-Aug-27 19:07 360 24.4
2014-Aug-27 18:56 360 24.4
2014-Aug-27 18:45 360 24.4
2014-Aug-27 18:35 360 24.4
2014-Aug-27 18:24 360 24.4
2014-Aug-27 18:13 360 24.4
2014-Aug-27 18:03 360 24.4
2014-Aug-27 17:51 360 24.4
2014-Aug-27 17:41 360 24.4
2014-Aug-27 17:31 360 24.4
2014-Aug-27 17:20 360 24.4
2014-Aug-27 17:10 360 24.4
2014-Aug-27 17:00 360 24.4
2014-Aug-27 16:50 360 25.0
2014-Aug-27 16:40 360 24.4
2014-Aug-27 16:30 360 24.4
2014-Aug-27 16:20 360 25.0
2014-Aug-27 16:10 360 24.4
2014-Aug-27 16:00 249 25.0
2014-Aug-27 15:50 246 24.4
2014-Aug-27 15:40 299 1 gusting 8 25.0
2014-Aug-27 15:29 351 1 gusting 8 25.6
2014-Aug-27 15:18 323 3 gusting 8 25.6
2014-Aug-27 15:07 360 26.1
2014-Aug-27 14:57 360 26.1
2014-Aug-27 14:46 360 26.1
2014-Aug-27 14:35 360 26.1
2014-Aug-27 14:25 360 26.1
2014-Aug-27 14:15 360 26.7
2014-Aug-27 14:05 360 26.1
2014-Aug-27 13:54 360 26.7
2014-Aug-27 13:43 360 26.7
2014-Aug-27 13:32 360 26.7
2014-Aug-27 13:22 360 26.7
2014-Aug-27 13:01 360 26.7
2014-Aug-27 12:51 360 26.7
2014-Aug-27 12:41 360 26.7
2014-Aug-27 12:31 360 26.7
2014-Aug-27 12:20 360 26.7
2014-Aug-27 12:10 360 26.7
2014-Aug-27 12:00 360 26.7
2014-Aug-27 11:50 360 27.2
2014-Aug-27 11:40 360 27.2
2014-Aug-27 11:29 360 27.2
2014-Aug-27 11:19 360 27.2
2014-Aug-27 11:08 360 27.2
2014-Aug-27 10:58 360 27.2
2014-Aug-27 10:37 360 28.3
2014-Aug-27 10:27 360 28.3
2014-Aug-27 10:17 360 28.9
2014-Aug-27 10:05 360 28.9
2014-Aug-27 09:55 360 28.9
2014-Aug-27 09:42 214 28.9
2014-Aug-27 09:32 214 29.4
2014-Aug-27 09:20 215 29.4
2014-Aug-27 09:10 215 1 gusting 5 29.4
2014-Aug-27 09:00 29.4
2014-Aug-27 08:50 215 1 gusting 4 29.4
2014-Aug-27 08:40 29.4
2014-Aug-27 08:29 215 1 gusting 6 30.0
2014-Aug-27 08:19 30.0
2014-Aug-27 08:09 215 2 gusting 5 30.0
2014-Aug-27 07:58 287 1 gusting 3 30.6
2014-Aug-27 07:47 30.6
2014-Aug-27 07:32 261 2 gusting 4 30.6
2014-Aug-27 07:21 261 30.6
2014-Aug-27 07:09 261 0 gusting 2 31.1
2014-Aug-27 06:59 265 1 gusting 2 31.1
2014-Aug-27 06:49 269 0 gusting 1 31.1
2014-Aug-27 06:37 268 0 gusting 3 30.6
2014-Aug-27 06:27 268 31.1
2014-Aug-27 06:17 269 0 gusting 4 30.6
2014-Aug-27 05:43 268 0 gusting 2 31.7
2014-Aug-27 05:33 303 0 gusting 2 31.7
2014-Aug-27 05:23 269 30.6
2014-Aug-27 05:13 269 30.6
2014-Aug-27 05:03 269 31.1
2014-Aug-27 04:53 269 31.1
2014-Aug-27 04:43 269 30.6
2014-Aug-27 04:33 269 0 gusting 0 30.0
2014-Aug-27 04:22 269 30.0
2014-Aug-27 04:12 269 30.0
2014-Aug-27 04:02 269 30.0
2014-Aug-27 03:52 269 30.0
2014-Aug-27 03:42 269 30.0
2014-Aug-27 03:32 269 30.0
2014-Aug-27 03:22 269 30.0
2014-Aug-27 03:11 269 30.0
2014-Aug-27 03:01 269 30.0
2014-Aug-27 02:50 269 30.0
2014-Aug-27 02:40 269 30.0
2014-Aug-27 02:30 360 30.6
2014-Aug-27 02:20 269 1 gusting 2 30.6
2014-Aug-27 02:10 360 30.6
2014-Aug-27 02:00 269 0 gusting 6 30.0
2014-Aug-27 01:49 30.0
2014-Aug-27 01:38 336 1 gusting 4 30.0
2014-Aug-27 01:27 29.4
2014-Aug-27 01:15 29.4
2014-Aug-27 01:05 345 1 gusting 6 28.9
2014-Aug-27 00:44 28.9
2014-Aug-27 00:34 360 28.3
2014-Aug-27 00:24 27.8
2014-Aug-27 00:14 282 1 gusting 4 27.8
2014-Aug-27 00:04 281 0 gusting 1 27.2
2014-Aug-26 23:53 281 0 gusting 0 27.2
2014-Aug-26 23:42 281 27.2
2014-Aug-26 23:32 281 0 gusting 2 27.2
2014-Aug-26 23:22 281 0 gusting 1 26.7
2014-Aug-26 23:11 281 26.1
2014-Aug-26 23:01 281 26.1
2014-Aug-26 22:51 281 25.6
2014-Aug-26 22:39 281 25.0
2014-Aug-26 22:29 281 25.0
2014-Aug-26 22:18 282 25.0
2014-Aug-26 22:08 282 25.0
2014-Aug-26 21:58 282 25.0
2014-Aug-26 21:48 282 25.0
2014-Aug-26 21:38 282 25.0
2014-Aug-26 21:27 282 25.6
2014-Aug-26 21:16 282 25.6
2014-Aug-26 21:06 282 25.6
2014-Aug-26 20:56 282 25.6
2014-Aug-26 20:46 282 0 gusting 0 25.6
2014-Aug-26 20:36 282 25.6
2014-Aug-26 20:25 282 25.6
2014-Aug-26 20:13 282 25.6
2014-Aug-26 20:03 282 25.6
2014-Aug-26 19:53 282 25.6
2014-Aug-26 19:33 282 25.6
2014-Aug-26 19:22 282 25.6
2014-Aug-26 19:11 282 0 gusting 3 25.6
2014-Aug-26 18:59 282 2 gusting 3 25.6
2014-Aug-26 18:49 282 0 gusting 4 25.6
2014-Aug-26 18:39 281 2 gusting 4 25.6
2014-Aug-26 18:29 293 0 gusting 3 25.6
2014-Aug-26 18:18 25.6
2014-Aug-26 18:07 25.6
2014-Aug-26 17:57 283 25.6
2014-Aug-26 17:47 322 0 gusting 4 25.6
2014-Aug-26 17:36 25.6
2014-Aug-26 17:26 360 25.6
2014-Aug-26 17:16 295 0 gusting 3 25.6
2014-Aug-26 17:06 25.6
2014-Aug-26 16:56 25.6
2014-Aug-26 16:45 298 1 gusting 4 25.6
2014-Aug-26 16:34 25.6
2014-Aug-26 16:21 25.6
2014-Aug-26 16:11 287 25.6
2014-Aug-26 16:01 286 0 gusting 4 25.6
2014-Aug-26 15:51 287 2 gusting 4 25.6
2014-Aug-26 15:41 351 0 gusting 4 25.6
2014-Aug-26 15:31 233 0 gusting 3 25.6
2014-Aug-26 15:21 232 1 gusting 3 25.6
2014-Aug-26 15:11 232 0 gusting 2 25.0
2014-Aug-26 14:57 233 0 gusting 0 25.0
2014-Aug-26 14:47 233 25.0
2014-Aug-26 14:35 233 25.0
2014-Aug-26 14:25 233 25.0
2014-Aug-26 14:15 233 25.0
2014-Aug-26 14:05 233 25.0
2014-Aug-26 13:55 233 25.0
2014-Aug-26 13:43 233 25.0
2014-Aug-26 13:32 233 25.0
2014-Aug-26 13:21 233 25.0
2014-Aug-26 13:11 233 25.0
2014-Aug-26 13:00 233 25.0
2014-Aug-26 12:50 233 25.0
2014-Aug-26 12:39 233 25.0
2014-Aug-26 12:29 233 25.0
2014-Aug-26 12:19 233 25.0
2014-Aug-26 12:08 233 25.0
2014-Aug-26 11:58 233 25.0
2014-Aug-26 11:48 233 25.0
2014-Aug-26 11:37 232 25.0
2014-Aug-26 11:27 232 25.0
2014-Aug-26 11:16 232 25.0
2014-Aug-26 11:06 232 24.4
2014-Aug-26 10:56 232 24.4
2014-Aug-26 10:46 232 25.0
2014-Aug-26 10:35 232 25.0
2014-Aug-26 10:25 232 25.0
2014-Aug-26 10:12 315 0 gusting 0 25.0
2014-Aug-26 10:01 038 0 gusting 0 25.0
2014-Aug-26 09:51 038 0 gusting 0 25.6
2014-Aug-26 09:40 038 0 gusting 0 26.1
2014-Aug-26 09:29 037 26.1
2014-Aug-26 09:19 037 26.1
2014-Aug-26 09:09 037 26.1
2014-Aug-26 08:59 037 25.6
2014-Aug-26 08:49 037 26.1
2014-Aug-26 08:38 037 26.1
2014-Aug-26 08:08 037 26.1
2014-Aug-26 07:56 038 26.7
2014-Aug-26 07:46 036 27.2
2014-Aug-26 07:34 036 27.2
2014-Aug-26 07:24 036 26.7
2014-Aug-26 07:14 036 27.2
2014-Aug-26 07:03 036 27.2
2014-Aug-26 06:53 038 27.8
2014-Aug-26 06:43 038 27.8
2014-Aug-26 06:32 038 27.8
2014-Aug-26 06:22 037 27.8
2014-Aug-26 06:12 036 27.2
2014-Aug-26 06:01 036 27.2
2014-Aug-26 05:51 037 27.8
2014-Aug-26 05:41 037 27.8
2014-Aug-26 05:31 037 28.9
2014-Aug-26 05:20 036 28.9
2014-Aug-26 05:10 036 28.3